Weather History for Cheraw, SC

Change the Weather History Date:

Monday, August 18, 2014

  Actual Average (KFLO) Record (KFLO)
Temperature  
Mean Temperature 80 °F 80 °F  
Max Temperature 91 °F 89 °F 101 °F (1988)
Min Temperature 68 °F 71 °F 55 °F (1979)
Degree Days  
Heating Degree Days 0 0  
Month to date heating degree days 0  
Since 1 June heating degree days 1  
Since 1 July heating degree days 0  
Cooling Degree Days 14 15  
Month to date cooling degree days 280  
Year to date cooling degree days 1486  
Since 1 June cooling degree days 1179  
Growing Degree Days 30 (Base 50)    
Moisture  
Dew Point 69 °F    
Average Humidity 72    
Maximum Humidity 100    
Minimum Humidity 46    
Precipitation  
Precipitation 0.00 in 0.17 in 3.21 in (2005)
Month to date precipitation 3.12  
Year to date precipitation 28.36  
Sea Level Pressure  
Sea Level Pressure 29.88 in    
Wind  
Wind Speed 1 mph (WSW)    
Max Wind Speed 12 mph    
Max Gust Speed 24 mph    
Visibility 9 miles    
Events Thunderstorm    
T = Trace of Precipitation, MM = Missing Value Source: NWS Daily Summary

Daily Weather History Graph

Daily Weather History Graph

Search for Another Location

Airport:

Trip Planner

Search our weather history database for the weather conditions in past years. The results will help you decide how hot, cold, wet, or windy it might be!

Date:

Astronomy

Aug. 18, 2014 Rise Set
Actual Time 6:42 AM EDT 8:04 PM EDT
Civil Twilight 6:16 AM EDT 8:30 PM EDT
Nautical Twilight 5:44 AM EDT 9:02 PM EDT
Astronomical Twilight 5:11 AM EDT 9:35 PM EDT
Moon 12:51 AM EDT (8/18) 3:02 PM EDT (8/18)
Length of Visible Light 14h 14m
Length of Day
13h 21m
Last Quarter, 38% of the Moon is Illuminated
Aug 18
Last Quarter
Aug 25
New
Sep 2
First Quarter
Sep 8
Full
Sep 15
Last Quarter

Hourly Weather History & Observations

Time (EDT) Temp. Heat Index Dew Point Humidity Pressure Visibility Wind Dir Wind Speed Gust Speed Precip Events Conditions
12:15 AM 71.6 °F - 68.0 °F 88% 29.97 in 9.0 mi Calm Calm - N/A   Clear
12:35 AM 71.6 °F - 68.0 °F 88% 29.96 in 9.0 mi Calm Calm - N/A   Clear
12:55 AM 71.6 °F - 68.0 °F 88% 29.96 in 8.0 mi Calm Calm - N/A   Clear
1:15 AM 69.8 °F - 68.0 °F 94% 29.96 in 7.0 mi Calm Calm - N/A   Clear
1:35 AM 71.6 °F - 68.0 °F 88% 29.95 in 8.0 mi Calm Calm - N/A   Clear
1:55 AM 69.8 °F - 68.0 °F 94% 29.94 in 4.0 mi Calm Calm - N/A   Clear
2:15 AM 68.0 °F - 68.0 °F 100% 29.94 in 3.0 mi Calm Calm - N/A   Clear
2:35 AM 68.0 °F - 68.0 °F 100% 29.93 in 4.0 mi Calm Calm - N/A   Clear
3:15 AM 68.0 °F - 68.0 °F 100% 29.92 in 5.0 mi Calm Calm - N/A   Partly Cloudy
3:35 AM 69.8 °F - 68.0 °F 94% 29.92 in 5.0 mi Calm Calm - N/A   Scattered Clouds
3:55 AM 68.0 °F - 68.0 °F 100% 29.92 in 2.0 mi Calm Calm - N/A   Scattered Clouds
4:15 AM 68.0 °F - 68.0 °F 100% 29.92 in 1.8 mi Calm Calm - N/A   Clear
4:35 AM 68.0 °F - 68.0 °F 100% 29.92 in 1.5 mi Calm Calm - N/A   Clear
4:55 AM 68.0 °F - 68.0 °F 100% 29.92 in 3.0 mi Calm Calm - N/A   Clear
5:15 AM 68.0 °F - 68.0 °F 100% 29.92 in 7.0 mi Calm Calm - N/A   Clear
5:35 AM 69.8 °F - 68.0 °F 94% 29.92 in 7.0 mi Calm Calm - N/A   Clear
5:55 AM 69.8 °F - 68.0 °F 94% 29.91 in 8.0 mi Calm Calm - N/A   Clear
6:15 AM 69.8 °F - 68.0 °F 94% 29.91 in 8.0 mi Calm Calm - N/A   Clear
6:35 AM 71.6 °F - 68.0 °F 88% 29.91 in 9.0 mi Calm Calm - N/A   Clear
6:55 AM 71.6 °F - 68.0 °F 88% 29.92 in 8.0 mi Calm Calm - N/A   Clear
7:15 AM 71.6 °F - 68.0 °F 88% 29.93 in 7.0 mi Calm Calm - N/A   Clear
7:35 AM 71.6 °F - 68.0 °F 88% 29.93 in 8.0 mi WSW 6.9 mph - N/A   Clear
7:55 AM 71.6 °F - 68.0 °F 88% 29.93 in 8.0 mi WSW 3.5 mph - N/A   Clear
8:15 AM 73.4 °F - 69.8 °F 88% 29.92 in 9.0 mi WSW 4.6 mph - N/A   Clear
8:35 AM 75.2 °F - 69.8 °F 83% 29.92 in 10.0 mi Calm Calm - N/A   Clear
8:55 AM 75.2 °F - 69.8 °F 83% 29.93 in 10.0 mi Calm Calm - N/A   Clear
9:15 AM 77.0 °F - 71.6 °F 83% 29.92 in 10.0 mi WSW 5.8 mph - N/A   Clear
9:35 AM 77.0 °F - 71.6 °F 83% 29.92 in 10.0 mi WSW 4.6 mph - N/A   Clear
9:55 AM 80.6 °F 84.6 °F 71.6 °F 74% 29.92 in 10.0 mi SW 3.5 mph - N/A   Clear
10:15 AM 80.6 °F 84.6 °F 71.6 °F 74% 29.92 in 10.0 mi Calm Calm - N/A   Clear
10:35 AM 82.4 °F 87.2 °F 71.6 °F 70% 29.92 in 10.0 mi Calm Calm - N/A   Clear
10:55 AM 84.2 °F 89.6 °F 71.6 °F 66% 29.92 in 10.0 mi Calm Calm - N/A   Clear
11:15 AM 84.2 °F 89.6 °F 71.6 °F 66% 29.92 in 10.0 mi Calm Calm - N/A   Clear
11:35 AM 86.0 °F 91.8 °F 71.6 °F 62% 29.91 in 10.0 mi Calm Calm - N/A   Partly Cloudy
11:55 AM 86.0 °F 91.8 °F 71.6 °F 62% 29.91 in 10.0 mi Calm Calm - N/A   Clear
12:15 PM 87.8 °F 93.8 °F 71.6 °F 58% 29.90 in 10.0 mi SW 6.9 mph - N/A   Partly Cloudy
12:35 PM 89.6 °F 96.2 °F 71.6 °F 55% 29.90 in 10.0 mi WSW 8.1 mph - N/A   Scattered Clouds
12:55 PM 89.6 °F 96.2 °F 71.6 °F 55% 29.90 in 10.0 mi West 8.1 mph - N/A   Partly Cloudy
1:15 PM 89.6 °F 96.2 °F 71.6 °F 55% 29.89 in 10.0 mi Calm Calm - N/A   Scattered Clouds
1:35 PM 89.6 °F 94.7 °F 69.8 °F 52% 29.88 in 10.0 mi Calm Calm - N/A   Scattered Clouds
1:55 PM 91.4 °F 96.8 °F 69.8 °F 49% 29.87 in 10.0 mi WSW 5.8 mph - N/A   Partly Cloudy
2:15 PM 89.6 °F 94.7 °F 69.8 °F 52% 29.86 in 10.0 mi SSW 10.4 mph - N/A   Scattered Clouds
2:35 PM 91.4 °F 95.4 °F 68.0 °F 46% 29.85 in 10.0 mi WSW 10.4 mph 24.2 mph N/A   Mostly Cloudy
2:55 PM 91.4 °F 95.4 °F 68.0 °F 46% 29.84 in 10.0 mi Calm Calm - N/A   Scattered Clouds
3:15 PM 91.4 °F 95.4 °F 68.0 °F 46% 29.83 in 10.0 mi SW 10.4 mph - N/A   Partly Cloudy
3:35 PM 91.4 °F 95.4 °F 68.0 °F 46% 29.82 in 10.0 mi SW 6.9 mph - N/A Thunderstorm Partly Cloudy
3:55 PM 91.4 °F 95.4 °F 68.0 °F 46% 29.81 in 10.0 mi Calm Calm - N/A   Partly Cloudy
4:15 PM 91.4 °F 95.4 °F 68.0 °F 46% 29.80 in 10.0 mi Calm Calm - N/A   Partly Cloudy
4:35 PM 91.4 °F 95.4 °F 68.0 °F 46% 29.79 in 10.0 mi SW 3.5 mph - N/A   Clear
4:55 PM 89.6 °F 93.4 °F 68.0 °F 49% 29.79 in 10.0 mi Calm Calm - N/A   Partly Cloudy
5:15 PM 89.6 °F 93.4 °F 68.0 °F 49% 29.79 in 10.0 mi Calm Calm - N/A   Partly Cloudy
5:35 PM 89.6 °F 93.4 °F 68.0 °F 49% 29.80 in 10.0 mi Calm Calm - N/A   Clear
5:55 PM 89.6 °F 94.7 °F 69.8 °F 52% 29.80 in 10.0 mi Calm Calm - N/A   Clear
6:15 PM 89.6 °F 93.4 °F 68.0 °F 49% 29.80 in 10.0 mi Calm Calm - N/A   Clear
6:35 PM 89.6 °F 93.4 °F 68.0 °F 49% 29.80 in 10.0 mi Calm Calm - N/A   Clear
6:55 PM 89.6 °F 94.7 °F 69.8 °F 52% 29.79 in 10.0 mi SW 11.5 mph - N/A   Clear
7:15 PM 86.0 °F 90.4 °F 69.8 °F 58% 29.80 in 10.0 mi Calm Calm - N/A   Clear
7:35 PM 86.0 °F 90.4 °F 69.8 °F 58% 29.80 in 10.0 mi Calm Calm - N/A   Clear
7:55 PM 84.2 °F 88.4 °F 69.8 °F 62% 29.79 in 10.0 mi Calm Calm - N/A   Clear
8:15 PM 82.4 °F 87.2 °F 71.6 °F 70% 29.80 in 10.0 mi Calm Calm - N/A   Clear
8:35 PM 82.4 °F 87.2 °F 71.6 °F 70% 29.80 in 10.0 mi Calm Calm - N/A   Clear
8:55 PM 82.4 °F 87.2 °F 71.6 °F 70% 29.80 in 10.0 mi Calm Calm - N/A   Clear
9:15 PM 80.6 °F 83.2 °F 68.0 °F 65% 29.81 in 10.0 mi WSW 4.6 mph - N/A   Clear
9:35 PM 78.8 °F - 68.0 °F 69% 29.82 in 10.0 mi Calm Calm - N/A   Clear
9:55 PM 77.0 °F - 68.0 °F 74% 29.83 in 10.0 mi Calm Calm - N/A   Clear
10:15 PM 77.0 °F - 68.0 °F 74% 29.83 in 10.0 mi Calm Calm - N/A   Clear
10:35 PM 77.0 °F - 68.0 °F 74% 29.83 in 10.0 mi Calm Calm - N/A   Clear
10:55 PM 77.0 °F - 66.2 °F 69% 29.83 in 10.0 mi Calm Calm - N/A   Clear
11:15 PM 75.2 °F - 68.0 °F 78% 29.83 in 10.0 mi Calm Calm - N/A   Clear
11:35 PM 75.2 °F - 68.0 °F 78% 29.83 in 10.0 mi Calm Calm - N/A   Clear